Home > Weather > Le Havre > Past weeks

Flag for France Weather for the Past 2 Weeks in Le Havre, Upper Normandy, France

Now
54 °F

Partly sunny.


Feels Like: 51 °F
Forecast: 41 / 62 °F
Wind: 9 mph from Northwest

Location: La Heve

Current Time: May 3, 2016 at 2:46:06 PM

Latest Report: May 3, 2016 at 2:00 PM


Visibility: N/A

Pressure: 30.36 "Hg

Humidity: 82%

Dew Point: 48 °F

Location of Le HavreLocation

Historic Weather in Le Havre — Graph

°F

Le Havre Temperature Yesterday

Maximum temperature yesterday: 59 °F (at 5:00 PM)
Minimum temperature yesterday: 45 °F (at 12:00 AM)
Average temperature yesterday: 53 °F

High & Low Weather Summary for the Past Weeks

 TemperatureHumidityPressure
High66 °F (Apr 21, 3:30 PM)100% (Apr 22, 11:00 PM)30.42 "Hg (Apr 22, 11:00 PM)
Low36 °F (Apr 27, 1:00 AM)41% (May 1, 5:00 PM)29.74 "Hg (Apr 26, 12:00 AM)
Average48 °F75%30.10 "Hg
* Reported Apr 18 1:00 PM — May 3 1:30 PM, Le Havre, Weather by CustomWeather, © 2016

Note: Actual official high and low records may vary slightly from our data, if they occured in-between our weather recording intervals... More about our weather records

Advertising

Le Havre Weather History for the Previous 24 Hours

Scroll right to see more
 ConditionsComfort  
Time TempWeatherWind HumidityBarometerVisibility
1:30 PM
Tue, May 3
52 °FScattered clouds.9 mph82%30.36 "HgN/A
1:00 PM52 °FPassing clouds.8 mph82%30.36 "HgN/A
12:30 PM52 °FPassing clouds.7 mph77%30.36 "HgN/A
12:00 PM52 °FPassing clouds.7 mph77%30.36 "HgN/A
11:30 AM52 °FPartly sunny.7 mph77%30.36 "HgN/A
11:00 AM52 °FScattered clouds.8 mph77%30.33 "HgN/A
10:00 AM52 °FPartly sunny.8 mph77%30.33 "HgN/A
9:30 AM50 °FPartly sunny.8 mph82%30.30 "HgN/A
9:00 AM50 °FPartly sunny.9 mph82%30.30 "HgN/A
8:30 AM48 °FPartly sunny.9 mph87%30.30 "HgN/A
8:00 AM48 °FPassing clouds.12 mph82%30.27 "HgN/A
7:30 AM48 °FPassing clouds.12 mph82%30.27 "HgN/A
7:00 AM46 °FPassing clouds.13 mph93%30.27 "HgN/A
6:30 AM46 °FPassing clouds.14 mph87%30.24 "HgN/A
5:30 AM48 °FOvercast.14 mph82%30.24 "HgN/A
5:00 AM48 °FPassing clouds.15 mph82%30.24 "HgN/A
4:30 AM48 °FPassing clouds.14 mph82%30.24 "HgN/A
3:30 AM48 °FClear.13 mph82%30.21 "Hg10 mi
3:00 AM48 °FPassing clouds.14 mph87%30.21 "HgN/A
2:30 AM48 °FPassing clouds.12 mph87%30.21 "HgN/A
2:00 AM48 °FPassing clouds.14 mph94%30.24 "HgN/A
1:30 AM48 °FPassing clouds.16 mph94%30.24 "HgN/A
1:00 AM48 °FPassing clouds.15 mph87%30.21 "HgN/A
12:30 AM50 °FPassing clouds.15 mph88%30.21 "HgN/A
12:00 AM50 °FOvercast.16 mph88%30.21 "HgN/A
11:30 PM
Mon, May 2
50 °FLow clouds.15 mph88%30.21 "HgN/A
11:00 PM50 °FLight rain. Passing clouds.13 mph94%30.21 "HgN/A
10:30 PM50 °FDrizzle. Low clouds.15 mph94%30.18 "Hg4 mi
10:00 PM54 °FMostly cloudy.15 mph88%30.18 "HgN/A
9:30 PM54 °FMostly cloudy.18 mph88%30.18 "HgN/A
9:00 PM54 °FSunny.16 mph82%30.18 "Hg10 mi
8:30 PM54 °FPassing clouds.10 mph82%30.15 "HgN/A
8:00 PM55 °FCool.10 mph77%30.15 "HgN/A
7:30 PM55 °FSunny.9 mph77%30.18 "Hg10 mi
7:00 PM57 °FOvercast.8 mph72%30.18 "HgN/A
6:30 PM57 °FMore clouds than sun.9 mph72%30.18 "HgN/A
6:00 PM57 °FMostly cloudy.8 mph72%30.18 "HgN/A
5:30 PM59 °FBroken clouds.9 mph72%30.18 "HgN/A
5:00 PM59 °FSunny.10 mph77%30.18 "Hg10 mi
4:30 PM57 °FMostly cloudy.8 mph77%30.21 "HgN/A
4:00 PM57 °FOvercast.10 mph77%30.21 "HgN/A
3:30 PM55 °FMostly cloudy.9 mph82%30.21 "HgN/A
3:00 PM57 °FBroken clouds.10 mph77%30.21 "HgN/A
2:30 PM55 °FOvercast.9 mph82%30.24 "HgN/A
2:00 PM55 °FOvercast.9 mph82%30.24 "HgN/A
Weather by CustomWeather, © 2016

See weather overviewHow to use our weather pages